WB9YJT Weather Reports


Display with metric or nautical units.
time (UTC)temp
F
wind
direction
speed
MPH
gust
MPH
rain 1hr
in
rain 24hr
in
rain mn
in
humidity
%
barometer
mb
20260504050404 58 155 0.0 1.0 0.00 0.00 0.00 64
20260504045901 58 163 0.0 2.0 0.00 0.00 0.00 63
20260504045356 58 167 2.0 3.0 0.00 0.00 0.00 63
20260504044853 58 157 0.0 3.0 0.00 0.00 0.00 63
20260504044350 58 115 0.0 2.0 0.00 0.00 0.00 64
20260504043848 58 165 0.0 1.0 0.00 0.00 0.00 64
20260504043344 58 156 0.0 1.0 0.00 0.00 0.00 64
20260504042842 58 145 0.0 1.0 0.00 0.00 0.00 63
20260504042338 58 160 0.0 1.0 0.00 0.00 0.00 63
20260504041834 59 157 0.0 0.0 0.00 0.00 0.00 63
20260504041331 58 156 0.0 0.0 0.00 0.00 0.00 63
20260504040827 58 162 0.0 0.0 0.00 0.00 0.00 63
20260504040325 59 159 0.0 0.0 0.00 0.00 0.00 63
20260504035820 59 156 0.0 0.0 0.00 0.00 0.00 62
20260504035318 60 160 0.0 1.0 0.00 0.00 0.00 61
20260504034815 60 161 0.0 1.0 0.00 0.00 0.00 61
20260504034313 60 160 0.0 1.0 0.00 0.00 0.00 60
20260504033809 60 147 0.0 2.0 0.00 0.00 0.00 60
20260504033307 60 165 0.0 1.0 0.00 0.00 0.00 60
20260504032804 60 150 0.0 1.0 0.00 0.00 0.00 60
20260504032301 61 169 0.0 1.0 0.00 0.00 0.00 59
20260504031757 61 165 0.0 1.0 0.00 0.00 0.00 59
20260504031255 61 174 0.0 1.0 0.00 0.00 0.00 59
20260504030751 61 172 0.0 2.0 0.00 0.00 0.00 58
20260504030248 62 198 0.0 1.0 0.00 0.00 0.00 57
20260504025744 62 155 0.0 1.0 0.00 0.00 0.00 57
20260504025241 62 137 0.0 2.0 0.00 0.00 0.00 58
20260504024738 62 156 0.0 1.0 0.00 0.00 0.00 57
20260504024235 62 165 0.0 1.0 0.00 0.00 0.00 56
20260504023732 62 195 1.0 2.0 0.00 0.00 0.00 56
20260504023228 63 154 0.0 2.0 0.00 0.00 0.00 56
20260504022724 63 168 0.0 1.0 0.00 0.00 0.00 56
20260504022220 63 162 0.0 2.0 0.00 0.00 0.00 56
20260504021718 63 161 0.0 3.0 0.00 0.00 0.00 55
20260504021215 63 184 1.0 2.0 0.00 0.00 0.00 55
20260504020712 63 167 1.0 2.0 0.00 0.00 0.00 54
20260504020208 63 165 0.0 1.0 0.00 0.00 0.00 54
20260504015704 64 184 1.0 1.0 0.00 0.00 0.00 54
20260504015201 64 138 0.0 1.0 0.00 0.00 0.00 54
20260504014656 64 160 1.0 1.0 0.00 0.00 0.00 53
20260504014154 64 72 1.0 5.0 0.00 0.00 0.00 54
20260504013651 64 163 0.0 1.0 0.00 0.00 0.00 53
20260504013148 64 149 1.0 3.0 0.00 0.00 0.00 53
20260504012645 64 135 0.0 2.0 0.00 0.00 0.00 52
20260504012143 65 86 1.0 2.0 0.00 0.00 0.00 52
20260504011640 65 186 2.0 2.0 0.00 0.00 0.00 51
20260504011136 66 132 0.0 0.0 0.00 0.00 0.00 51
20260504010632 66 154 0.0 1.0 0.00 0.00 0.00 49
20260504010128 66 160 0.0 1.0 0.00 0.00 0.00 48
20260504005625 66 164 0.0 0.0 0.00 0.00 0.00 48
20260504005122 67 161 0.0 1.0 0.00 0.00 0.00 48
20260504004620 67 128 0.0 1.0 0.00 0.00 0.00 48
20260504004117 67 185 0.0 1.0 0.00 0.00 0.00 47
20260504003613 68 157 0.0 1.0 0.00 0.00 0.00 47
20260504003110 68 162 2.0 3.0 0.00 0.00 0.00 47
20260504002607 68 89 1.0 3.0 0.00 0.00 0.00 46
20260504002104 69 158 1.0 2.0 0.00 0.00 0.00 45
20260504001602 69 174 2.0 5.0 0.00 0.00 0.00 44
20260504001057 69 174 1.0 5.0 0.00 0.00 0.00 43
20260504000555 69 62 2.0 5.0 0.00 0.00 0.00 44
20260504000052 70 72 3.0 5.0 0.00 0.00 0.00 43
20260503235551 70 158 2.0 5.0 0.00 0.00 0.00 43
20260503235047 70 108 2.0 5.0 0.00 0.00 0.00 42
20260503234545 70 49 3.0 6.0 0.00 0.00 0.00 42
20260503234043 70 79 3.0 5.0 0.00 0.00 0.00 42
20260503233539 70 169 3.0 7.0 0.00 0.00 0.00 42
20260503233035 70 194 2.0 5.0 0.00 0.00 0.00 41
20260503232532 71 72 2.0 9.0 0.00 0.00 0.00 41
20260503232030 71 290 2.0 6.0 0.00 0.00 0.00 41
20260503231528 71 196 1.0 5.0 0.00 0.00 0.00 42
20260503231024 71 83 3.0 8.0 0.00 0.00 0.00 41
20260503230521 71 179 3.0 7.0 0.00 0.00 0.00 42
20260503230018 71 191 2.0 3.0 0.00 0.00 0.00 42
20260503225515 71 174 5.0 8.0 0.00 0.00 0.00 41
20260503225010 70 64 3.0 7.0 0.00 0.00 0.00 42
20260503224508 70 335 4.0 6.0 0.00 0.00 0.00 41
20260503224005 71 234 5.0 9.0 0.00 0.00 0.00 40
20260503223503 71 24 3.0 8.0 0.00 0.00 0.00 40
20260503222958 71 268 2.0 6.0 0.00 0.00 0.00 40
20260503222457 71 208 4.0 14.0 0.00 0.00 0.00 41
20260503221955 71 129 3.0 5.0 0.00 0.00 0.00 41
20260503221453 71 6 1.0 9.0 0.00 0.00 0.00 41
20260503220950 70 167 3.0 7.0 0.00 0.00 0.00 42
20260503220446 70 29 4.0 6.0 0.00 0.00 0.00 42
20260503215943 69 35 4.0 7.0 0.00 0.00 0.00 41
20260503215440 70 63 2.0 5.0 0.00 0.00 0.00 40
20260503214937 71 3 3.0 11.0 0.00 0.00 0.00 41
20260503214435 71 144 3.0 7.0 0.00 0.00 0.00 40
20260503213932 70 94 1.0 5.0 0.00 0.00 0.00 41
20260503213430 70 342 2.0 10.0 0.00 0.00 0.00 42
20260503212926 71 151 2.0 5.0 0.00 0.00 0.00 40
20260503212424 71 152 0.0 2.0 0.00 0.00 0.00 41
20260503211921 69 49 2.0 3.0 0.00 0.00 0.00 43
20260503211418 68 59 4.0 6.0 0.00 0.00 0.00 41
20260503210913 69 83 3.0 9.0 0.00 0.00 0.00 40
20260503210410 69 158 2.0 3.0 0.00 0.00 0.00 41
20260503205905 68 80 1.0 7.0 0.00 0.00 0.00 42
20260503205402 68 295 4.0 6.0 0.00 0.00 0.00 42
20260503204858 67 132 3.0 7.0 0.00 0.00 0.00 42
20260503204356 67 196 2.0 3.0 0.00 0.00 0.00 43
20260503203853 68 62 5.0 7.0 0.00 0.00 0.00 42
20260503203350 68 212 3.0 13.0 0.00 0.00 0.00 41
20260503202847 68 179 6.0 11.0 0.00 0.00 0.00 41
20260503202345 66 164 3.0 9.0 0.00 0.00 0.00 43
20260503201843 66 87 1.0 6.0 0.00 0.00 0.00 44
20260503201340 65 99 2.0 7.0 0.00 0.00 0.00 43
20260503200838 66 82 4.0 7.0 0.00 0.00 0.00 42
20260503200333 66 164 4.0 8.0 0.00 0.00 0.00 42
20260503195831 66 102 2.0 8.0 0.00 0.00 0.00 42
20260503195327 67 17 4.0 10.0 0.00 0.00 0.00 43
20260503194825 67 6 3.0 6.0 0.00 0.00 0.00 48
20260503194320 66 106 3.0 8.0 0.00 0.00 0.00 47
20260503193816 66 143 2.0 6.0 0.00 0.00 0.00 47
20260503193313 64 148 4.0 8.0 0.00 0.00 0.00 49
20260503192809 64 175 3.0 7.0 0.00 0.00 0.00 49
20260503192305 64 94 1.0 5.0 0.00 0.00 0.00 51
20260503191801 63 216 1.0 7.0 0.00 0.00 0.00 51
20260503191258 63 202 2.0 6.0 0.00 0.00 0.00 51
20260503190754 63 219 4.0 6.0 0.00 0.00 0.00 51
20260503190251 63 154 3.0 8.0 0.00 0.00 0.00 53
20260503185749 63 356 1.0 2.0 0.00 0.00 0.00 53
20260503185244 62 186 1.0 8.0 0.00 0.00 0.00 52
20260503184739 62 305 2.0 6.0 0.00 0.00 0.00 52
20260503184235 62 98 4.0 7.0 0.00 0.00 0.00 52
20260503183732 61 334 2.0 3.0 0.00 0.00 0.00 56
20260503183229 60 169 1.0 3.0 0.00 0.00 0.00 54
20260503182727 60 205 1.0 8.0 0.00 0.00 0.00 54
20260503182226 61 67 3.0 6.0 0.00 0.00 0.00 52
20260503181722 60 111 1.0 2.0 0.00 0.00 0.00 55
20260503181219 58 40 1.0 5.0 0.00 0.00 0.00 55
20260503180715 58 154 3.0 3.0 0.00 0.00 0.00 56
20260503180214 59 10 1.0 10.0 0.00 0.00 0.00 56
20260503175710 60 18 2.0 6.0 0.00 0.00 0.00 55
20260503175208 59 203 1.0 3.0 0.00 0.00 0.00 59
20260503174704 59 145 1.0 6.0 0.00 0.00 0.00 57
20260503174202 57 169 1.0 3.0 0.00 0.00 0.00 59
20260503173656 56 104 2.0 3.0 0.00 0.00 0.00 59
20260503173153 55 30 3.0 5.0 0.00 0.00 0.00 62
20260503172650 56 181 2.0 6.0 0.00 0.00 0.00 62
20260503172147 56 136 3.0 6.0 0.00 0.00 0.00 62
20260503171643 56 71 3.0 6.0 0.00 0.00 0.00 61
20260503171141 57 198 1.0 2.0 0.00 0.00 0.00 62
20260503170638 57 127 0.0 2.0 0.00 0.00 0.00 63
20260503170135 56 133 1.0 3.0 0.00 0.00 0.00 64
20260503150526 54 58 7.0 13.0 0.00 0.00 0.00 60
20260503131419 49 161 3.0 7.0 0.00 0.00 0.00 61
20260503130916 49 82 1.0 9.0 0.00 0.00 0.00 61
20260503130414 49 194 2.0 9.0 0.00 0.00 0.00 61
20260503110817 46 176 0.0 2.0 0.00 0.00 0.00 64
20260503110315 46 161 0.0 1.0 0.00 0.00 0.00 64
20260503100241 46 179 1.0 2.0 0.00 0.00 0.00 60
20260503090200 46 163 0.0 5.0 0.00 0.00 0.00 59
20260503081630 46 153 0.0 2.0 0.00 0.00 0.00 57
20260503081127 46 181 1.0 2.0 0.00 0.00 0.00 57
20260503080623 46 140 0.0 1.0 0.00 0.00 0.00 56
20260503080120 46 62 1.0 5.0 0.00 0.00 0.00 56
20260503072557 46 167 0.0 3.0 0.00 0.00 0.00 56
20260503072054 46 95 0.0 1.0 0.00 0.00 0.00 55
20260503071551 46 152 0.0 1.0 0.00 0.00 0.00 55
20260503071048 47 100 0.0 0.0 0.00 0.00 0.00 55
20260503070544 47 160 0.0 1.0 0.00 0.00 0.00 54